{"data":{"norad_id":53674,"epoch":"2026-05-25T03:20:53.822112Z","epoch_age_seconds":53087,"freshness":"FRESH","line1":"1 53674U 22105AC  26145.13951183 -.00001511  00000+0 -10060-3 0  9993","line2":"2 53674  97.4483  25.0884 0003119  67.7729 292.3828 15.05661537204730","mean_motion":15.05661537,"eccentricity":0.0003119,"inclination_deg":97.4483,"raan_deg":25.0884,"arg_perigee_deg":67.7729,"mean_anomaly_deg":292.3828,"bstar":-0.0001006,"rev_number":20473,"period_min":95.639024084335,"perigee_km":547.31504323976,"apogee_km":551.63648808299,"semimajor_km":6927.6127656614,"source":"CELESTRAK","updated_at":"2026-05-25T13:38:17.489861Z"}}